Total_Precipitation_Accumulation
0.71 0.70 0.71 0.67 0.67 0.68 0.73 0.85 1.06 0.94 0.58 0.42 0.42 0.44 0.51 0.59 0.59 0.56 0.55 0.65 0.70 0.76 0.85 0.90 0.98 1.17 1.52 2.08 2.68 3.58 4.16 3.81 3.04 2.51 2.40 2.68 3.11 3.53
0.78 0.79 0.75 0.71 0.73 0.77 0.80 0.80 0.87 0.99 0.79 0.44 0.40 0.42 0.51 0.65 0.73 0.64 0.60 0.72 0.74 0.74 0.77 0.80 0.86 1.01 1.26 1.58 2.02 2.61 3.48 3.92 3.68 3.16 2.77 2.82 3.03 3.40
0.80 0.82 0.78 0.75 0.83 0.87 0.92 0.91 0.86 0.89 0.92 0.54 0.43 0.47 0.61 0.72 0.78 0.74 0.72 0.70 0.69 0.74 0.76 0.80 0.83 0.93 1.11 1.34 1.57 1.94 2.59 3.32 3.74 3.74 3.39 3.11 3.03 3.07
0.84 0.86 0.85 0.82 0.86 0.89 0.97 0.97 0.89 0.83 0.90 0.75 0.58 0.62 0.71 0.80 0.83 0.81 0.80 0.77 0.68 0.71 0.73 0.82 0.87 0.92 1.04 1.20 1.36 1.58 1.98 2.51 3.06 3.47 3.55 3.25 3.05 3.06
0.82 0.87 0.90 0.91 0.86 0.87 0.97 1.02 0.96 0.91 0.93 0.93 0.74 0.67 0.77 0.88 0.99 0.98 0.92 0.91 0.80 0.77 0.77 0.84 0.91 0.91 0.96 1.09 1.27 1.42 1.59 1.77 2.16 2.76 3.34 3.42 3.17 3.11
0.74 0.76 0.85 0.98 1.00 1.02 1.06 1.05 1.07 1.12 1.10 1.08 0.94 0.83 0.88 0.97 1.10 1.16 1.12 1.06 0.99 0.89 0.91 0.95 0.98 0.98 0.93 0.92 0.99 1.10 1.27 1.55 1.88 2.32 2.79 3.19 3.18 3.10
0.73 0.68 0.78 1.02 1.20 1.37 1.43 1.33 1.34 1.46 1.43 1.38 1.25 1.10 1.01 1.07 1.17 1.16 1.22 1.15 1.13 1.06 1.01 1.01 0.96 0.92 0.87 0.84 0.86 0.92 1.02 1.24 1.53 1.86 2.27 2.61 2.89 3.04
0.82 0.72 0.77 1.01 1.15 1.27 1.40 1.40 1.45 1.63 1.73 1.67 1.52 1.31 1.02 0.93 1.00 1.19 1.39 1.52 1.46 1.23 1.13 1.13 0.97 0.93 0.86 0.77 0.82 0.87 0.92 1.07 1.30 1.54 1.83 2.15 2.47 2.79
0.83 0.78 0.79 0.89 1.02 1.05 1.14 1.17 1.20 1.39 1.63 1.73 1.67 1.31 1.09 0.99 1.17 1.40 1.48 1.58 1.47 1.38 1.39 1.45 1.16 1.02 0.90 0.87 0.94 0.89 0.93 1.00 1.10 1.28 1.53 1.77 2.04 2.39
0.88 0.81 0.75 0.80 0.92 1.08 1.15 1.11 1.03 1.11 1.35 1.54 1.73 1.52 1.31 1.33 1.58 1.83 1.94 1.97 1.74 1.61 1.55 1.74 1.42 1.18 1.04 0.98 1.01 0.93 0.90 0.92 0.98 1.07 1.25 1.47 1.69 2.00
0.92 0.86 0.77 0.73 0.90 1.06 1.05 1.02 0.95 0.99 1.12 1.32 1.47 1.53 1.55 1.69 1.98 2.36 2.53 2.51 2.26 1.95 1.72 1.73 1.65 1.49 1.43 1.35 1.24 1.11 0.95 0.87 0.90 0.96 1.06 1.22 1.45 1.81
0.94 0.90 0.96 0.93 1.01 1.03 0.95 1.00 1.09 0.99 0.95 0.99 1.04 1.09 1.15 1.30 1.69 2.12 2.43 2.52 2.31 2.23 1.94 1.72 1.73 1.75 2.06 1.87 1.51 1.21 1.03 0.97 0.92 0.92 0.95 1.00 1.19 1.37
0.96 0.96 0.92 1.05 1.06 1.02 1.00 0.98 1.15 1.08 0.99 1.06 1.04 0.98 0.97 1.07 1.24 1.58 2.06 2.41 2.41 2.19 1.94 1.91 2.03 1.74 1.87 1.96 1.72 1.37 1.06 0.95 0.89 0.92 0.94 0.95 1.00 1.07
0.94 0.87 0.86 1.01 1.05 1.08 1.05 1.08 1.13 1.13 1.07 1.07 1.01 0.93 0.94 1.02 1.16 1.35 1.62 1.94 2.08 1.99 1.82 1.93 2.25 1.93 1.68 1.57 1.56 1.54 1.23 1.04 0.89 0.86 0.86 1.02 1.08 1.09
1.04 1.07 1.02 1.10 1.13 1.05 1.01 1.05 1.03 0.98 1.06 1.08 0.97 0.84 0.82 0.92 1.02 1.12 1.24 1.46 1.67 1.73 1.75 1.82 2.04 2.05 1.86 1.60 1.31 1.27 1.29 1.29 1.07 0.93 0.88 0.87 0.87 0.90
1.18 1.16 1.16 1.17 1.14 1.08 1.01 0.92 0.85 0.87 0.96 0.98 0.91 0.81 0.74 0.78 0.90 1.01 1.12 1.24 1.51 1.65 1.71 1.84 2.06 2.26 2.16 1.60 1.33 1.17 1.05 1.30 1.27 1.06 0.95 0.90 0.83 0.73
1.27 1.31 1.25 1.20 1.19 1.08 0.94 0.83 0.79 0.84 0.88 0.84 0.85 0.85 0.81 0.80 0.82 0.90 1.08 1.19 1.37 1.49 1.65 1.92 2.16 2.25 2.27 2.00 1.66 1.27 1.01 1.01 1.10 1.06 1.01 1.01 0.98 0.84
1.30 1.29 1.13 0.98 0.94 0.90 0.84 0.78 0.75 0.74 0.73 0.76 0.82 0.82 0.81 0.83 0.83 0.85 0.99 1.16 1.29 1.35 1.43 1.65 2.01 2.28 2.44 2.43 1.95 1.41 1.11 1.05 1.16 1.16 1.04 1.01 1.08 1.01
1.09 0.97 0.87 0.82 0.78 0.75 0.72 0.70 0.69 0.65 0.65 0.71 0.76 0.78 0.76 0.80 0.84 0.87 0.93 1.07 1.19 1.29 1.39 1.50 1.75 2.06 2.21 2.33 2.32 1.74 1.30 1.16 1.26 1.41 1.26 1.02 0.95 0.99
0.83 0.81 0.79 0.77 0.79 0.81 0.77 0.74 0.70 0.69 0.69 0.67 0.68 0.70 0.73 0.80 0.83 0.83 0.88 1.00 1.09 1.19 1.32 1.43 1.62 1.84 1.96 1.89 1.97 2.00 1.79 1.43 1.28 1.44 1.44 1.23 1.09 1.15
0.76 0.75 0.75 0.77 0.82 0.83 0.78 0.74 0.72 0.68 0.65 0.64 0.63 0.62 0.65 0.73 0.76 0.74 0.81 0.91 1.00 1.08 1.18 1.28 1.46 1.63 1.79 1.81 1.72 1.71 1.90 1.90 1.48 1.35 1.40 1.40 1.33 1.31
0.75 0.77 0.76 0.77 0.82 0.84 0.80 0.76 0.74 0.70 0.65 0.62 0.60 0.58 0.59 0.66 0.71 0.72 0.77 0.84 0.87 0.95 1.06 1.19 1.34 1.52 1.72 1.84 1.74 1.59 1.72 1.94 1.92 1.65 1.46 1.34 1.30 1.27
0.79 0.81 0.81 0.79 0.79 0.80 0.80 0.76 0.72 0.69 0.66 0.63 0.59 0.58 0.60 0.63 0.65 0.70 0.75 0.77 0.82 0.87 0.97 1.15 1.30 1.44 1.65 1.77 1.77 1.62 1.57 1.69 1.72 1.69 1.76 1.52 1.12 0.86